Year,Month,Day,Hour,Minute,Value (Times are PST for windspeed in km/hr)
2006,12,25,00,00,8.50
2006,12,25,00,01,12.90
2006,12,25,00,02,14.20
2006,12,25,00,03,14.10
2006,12,25,00,04,7.70
2006,12,25,00,05,6.10
2006,12,25,00,06,5.80
2006,12,25,00,07,6.30
2006,12,25,00,08,5.10
2006,12,25,00,09,3.00
2006,12,25,00,10,5.00
2006,12,25,00,11,5.50
2006,12,25,00,12,4.60
2006,12,25,00,13,5.90
2006,12,25,00,14,4.40
2006,12,25,00,15,2.50
2006,12,25,00,16,3.70
2006,12,25,00,17,3.10
2006,12,25,00,18,1.10
2006,12,25,00,19,0.10
2006,12,25,00,20,0.80
2006,12,25,00,21,0.60
2006,12,25,00,22,1.40
2006,12,25,00,23,2.70
2006,12,25,00,24,3.10
2006,12,25,00,25,1.30
2006,12,25,00,26,2.20
2006,12,25,00,27,0.60
2006,12,25,00,28,2.70
2006,12,25,00,29,4.30
2006,12,25,00,30,1.70
2006,12,25,00,31,1.40
2006,12,25,00,32,1.80
2006,12,25,00,33,1.60
2006,12,25,00,34,0.00
2006,12,25,00,35,0.10
2006,12,25,00,36,1.40
2006,12,25,00,37,2.50
2006,12,25,00,38,3.40
2006,12,25,00,39,3.70
2006,12,25,00,40,3.90
2006,12,25,00,41,2.10
2006,12,25,00,42,0.70
2006,12,25,00,43,1.00
2006,12,25,00,44,1.80
2006,12,25,00,45,3.40
2006,12,25,00,46,3.70
2006,12,25,00,47,6.70
2006,12,25,00,48,5.90
2006,12,25,00,49,4.70
2006,12,25,00,50,5.20
2006,12,25,00,51,2.80
2006,12,25,00,52,1.60
2006,12,25,00,53,1.50
2006,12,25,00,54,4.20
2006,12,25,00,55,7.90
2006,12,25,00,56,9.00
2006,12,25,00,57,4.50
2006,12,25,00,58,4.70
2006,12,25,00,59,3.70
2006,12,25,01,00,3.90
2006,12,25,01,01,6.40
2006,12,25,01,02,6.70
2006,12,25,01,03,3.50
2006,12,25,01,04,3.10
2006,12,25,01,05,3.30
2006,12,25,01,06,3.80
2006,12,25,01,07,3.70
2006,12,25,01,08,5.80
2006,12,25,01,09,6.10
2006,12,25,01,10,7.30
2006,12,25,01,11,7.40
2006,12,25,01,12,3.70
2006,12,25,01,13,1.70
2006,12,25,01,14,1.90
2006,12,25,01,15,1.90
2006,12,25,01,16,2.30
2006,12,25,01,17,3.00
2006,12,25,01,18,0.20
2006,12,25,01,19,0.20
2006,12,25,01,20,0.00
2006,12,25,01,21,0.20
2006,12,25,01,22,2.50
2006,12,25,01,23,2.60
2006,12,25,01,24,3.40
2006,12,25,01,25,5.20
2006,12,25,01,26,5.10
2006,12,25,01,27,6.40
2006,12,25,01,28,5.90
2006,12,25,01,29,6.20
2006,12,25,01,30,6.80
2006,12,25,01,31,3.80
2006,12,25,01,32,3.70
2006,12,25,01,33,3.90
2006,12,25,01,34,3.80
2006,12,25,01,35,3.50
2006,12,25,01,36,7.50
2006,12,25,01,37,7.30
2006,12,25,01,38,6.60
2006,12,25,01,39,6.20
2006,12,25,01,40,7.90
2006,12,25,01,41,5.70
2006,12,25,01,42,3.00
2006,12,25,01,43,4.10
2006,12,25,01,44,5.20
2006,12,25,01,45,4.70
2006,12,25,01,46,4.50
2006,12,25,01,47,4.30
2006,12,25,01,48,5.00
2006,12,25,01,49,6.50
2006,12,25,01,50,7.20
2006,12,25,01,51,8.00
2006,12,25,01,52,10.10
2006,12,25,01,53,8.50
2006,12,25,01,54,7.00
2006,12,25,01,55,5.70
2006,12,25,01,56,4.30
2006,12,25,01,57,3.50
2006,12,25,01,58,2.20
2006,12,25,01,59,0.40
2006,12,25,02,00,3.00
2006,12,25,02,01,5.60
2006,12,25,02,02,4.60
2006,12,25,02,03,4.00
2006,12,25,02,04,2.90
2006,12,25,02,05,3.50
2006,12,25,02,06,3.30
2006,12,25,02,07,4.40
2006,12,25,02,08,4.30
2006,12,25,02,09,5.40
2006,12,25,02,10,4.40
2006,12,25,02,11,4.10
2006,12,25,02,12,5.50
2006,12,25,02,13,3.90
2006,12,25,02,14,3.40
2006,12,25,02,15,4.10
2006,12,25,02,16,5.30
2006,12,25,02,17,2.50
2006,12,25,02,18,2.70
2006,12,25,02,19,4.70
2006,12,25,02,20,4.80
2006,12,25,02,21,5.40
2006,12,25,02,22,3.60
2006,12,25,02,23,1.10
2006,12,25,02,24,2.00
2006,12,25,02,25,1.40
2006,12,25,02,26,4.60
2006,12,25,02,27,2.50
2006,12,25,02,28,1.00
2006,12,25,02,29,0.90
2006,12,25,02,30,3.70
2006,12,25,02,31,1.30
2006,12,25,02,32,2.40
2006,12,25,02,33,2.20
2006,12,25,02,34,2.30
2006,12,25,02,35,0.70
2006,12,25,02,36,4.40
2006,12,25,02,37,6.10
2006,12,25,02,38,4.90
2006,12,25,02,39,2.30
2006,12,25,02,40,2.70
2006,12,25,02,41,2.00
2006,12,25,02,42,3.40
2006,12,25,02,43,3.70
2006,12,25,02,44,1.60
2006,12,25,02,45,1.60
2006,12,25,02,46,4.30
2006,12,25,02,47,5.00
2006,12,25,02,48,5.90
2006,12,25,02,49,3.10
2006,12,25,02,50,0.60
2006,12,25,02,51,0.40
2006,12,25,02,52,2.50
2006,12,25,02,53,2.90
2006,12,25,02,54,4.40
2006,12,25,02,55,2.30
2006,12,25,02,56,4.70
2006,12,25,02,57,2.50
2006,12,25,02,58,3.50
2006,12,25,02,59,4.20
2006,12,25,03,00,3.50
2006,12,25,03,01,4.10
2006,12,25,03,02,2.30
2006,12,25,03,03,2.00
2006,12,25,03,04,1.30
2006,12,25,03,05,2.00
2006,12,25,03,06,4.30
2006,12,25,03,07,4.50
2006,12,25,03,08,4.40
2006,12,25,03,09,3.80
2006,12,25,03,10,4.30
2006,12,25,03,11,3.30
2006,12,25,03,12,3.00
2006,12,25,03,13,2.40
2006,12,25,03,14,0.80
2006,12,25,03,15,1.40
2006,12,25,03,16,0.40
2006,12,25,03,17,2.30
2006,12,25,03,18,1.40
2006,12,25,03,19,2.50
2006,12,25,03,20,1.50
2006,12,25,03,21,2.50
2006,12,25,03,22,4.10
2006,12,25,03,23,4.60
2006,12,25,03,24,3.90
2006,12,25,03,25,3.30
2006,12,25,03,26,2.70
2006,12,25,03,27,1.00
2006,12,25,03,28,0.70
2006,12,25,03,29,0.60
2006,12,25,03,30,4.40
2006,12,25,03,31,3.90
2006,12,25,03,32,2.20
2006,12,25,03,33,1.20
2006,12,25,03,34,4.80
2006,12,25,03,35,6.50
2006,12,25,03,36,6.00
2006,12,25,03,37,4.30
2006,12,25,03,38,2.80
2006,12,25,03,39,3.90
2006,12,25,03,40,2.00
2006,12,25,03,41,3.80
2006,12,25,03,42,4.20
2006,12,25,03,43,3.60
2006,12,25,03,44,5.40
2006,12,25,03,45,4.40
2006,12,25,03,46,6.40
2006,12,25,03,47,4.20
2006,12,25,03,48,4.50
2006,12,25,03,49,4.50
2006,12,25,03,50,3.80
2006,12,25,03,51,3.90
2006,12,25,03,52,3.60
2006,12,25,03,53,2.40
2006,12,25,03,54,0.30
2006,12,25,03,55,0.70
2006,12,25,03,56,1.30
2006,12,25,03,57,3.50
2006,12,25,03,58,4.20
2006,12,25,03,59,4.00
2006,12,25,04,00,6.90
2006,12,25,04,01,5.80
2006,12,25,04,02,4.70
2006,12,25,04,03,4.70
2006,12,25,04,04,5.50
2006,12,25,04,05,4.00
2006,12,25,04,06,4.60
2006,12,25,04,07,7.10
2006,12,25,04,08,7.70
2006,12,25,04,09,8.10
2006,12,25,04,10,5.00
2006,12,25,04,11,5.40
2006,12,25,04,12,4.70
2006,12,25,04,13,5.90
2006,12,25,04,14,5.30
2006,12,25,04,15,5.40
2006,12,25,04,16,2.90
2006,12,25,04,17,3.10
2006,12,25,04,18,2.10
2006,12,25,04,19,3.10
2006,12,25,04,20,2.40
2006,12,25,04,21,2.90
2006,12,25,04,22,3.50
2006,12,25,04,23,4.90
2006,12,25,04,24,3.20
2006,12,25,04,25,3.30
2006,12,25,04,26,2.70
2006,12,25,04,27,2.20
2006,12,25,04,28,2.40
2006,12,25,04,29,5.20
2006,12,25,04,30,4.30
2006,12,25,04,31,3.40
2006,12,25,04,32,2.40
2006,12,25,04,33,1.40
2006,12,25,04,34,0.10
2006,12,25,04,35,0.30
2006,12,25,04,36,1.00
2006,12,25,04,37,0.60
2006,12,25,04,38,0.00
2006,12,25,04,39,0.10
2006,12,25,04,40,3.30
2006,12,25,04,41,0.90
2006,12,25,04,42,0.40
2006,12,25,04,43,0.00
2006,12,25,04,44,0.20
2006,12,25,04,45,0.00
2006,12,25,04,46,2.30
2006,12,25,04,47,6.40
2006,12,25,04,48,6.40
2006,12,25,04,49,4.60
2006,12,25,04,50,1.00
2006,12,25,04,51,3.80
2006,12,25,04,52,3.50
2006,12,25,04,53,1.20
2006,12,25,04,54,1.50
2006,12,25,04,55,0.10
2006,12,25,04,56,0.20
2006,12,25,04,57,1.30
2006,12,25,04,58,3.20
2006,12,25,04,59,0.80
2006,12,25,05,00,0.40
2006,12,25,05,01,2.60
2006,12,25,05,02,3.00
2006,12,25,05,03,2.30
2006,12,25,05,04,0.60
2006,12,25,05,05,1.30
2006,12,25,05,06,3.00
2006,12,25,05,07,5.30
2006,12,25,05,08,5.60
2006,12,25,05,09,5.30
2006,12,25,05,10,2.60
2006,12,25,05,11,5.20
2006,12,25,05,12,4.60
2006,12,25,05,13,3.20
2006,12,25,05,14,1.50
2006,12,25,05,15,0.80
2006,12,25,05,16,0.60
2006,12,25,05,17,1.40
2006,12,25,05,18,1.10
2006,12,25,05,19,2.60
2006,12,25,05,20,2.10
2006,12,25,05,21,2.20
2006,12,25,05,22,2.90
2006,12,25,05,23,2.20
2006,12,25,05,24,0.30
2006,12,25,05,25,0.30
2006,12,25,05,26,0.00
2006,12,25,05,27,0.50
2006,12,25,05,28,4.30
2006,12,25,05,29,5.80
2006,12,25,05,30,2.10
2006,12,25,05,31,1.90
2006,12,25,05,32,1.40
2006,12,25,05,33,3.00
2006,12,25,05,34,2.00
2006,12,25,05,35,0.20
2006,12,25,05,36,0.10
2006,12,25,05,37,0.00
2006,12,25,05,38,0.00
2006,12,25,05,39,0.00
2006,12,25,05,40,0.10
2006,12,25,05,41,0.20
2006,12,25,05,42,0.50
2006,12,25,05,43,1.20
2006,12,25,05,44,0.20
2006,12,25,05,45,0.00
2006,12,25,05,46,0.00
2006,12,25,05,47,0.00
2006,12,25,05,48,0.00
2006,12,25,05,49,0.00
2006,12,25,05,50,1.00
2006,12,25,05,51,3.70
2006,12,25,05,52,3.00
2006,12,25,05,53,0.30
2006,12,25,05,54,0.00
2006,12,25,05,55,0.00
2006,12,25,05,56,0.00
2006,12,25,05,57,0.00
2006,12,25,05,58,0.00
2006,12,25,05,59,0.00
2006,12,25,06,00,0.00
2006,12,25,06,01,0.10
2006,12,25,06,02,0.40
2006,12,25,06,03,0.20
2006,12,25,06,04,0.00
2006,12,25,06,05,0.00
2006,12,25,06,06,0.00
2006,12,25,06,07,0.00
2006,12,25,06,08,0.00
2006,12,25,06,09,0.00
2006,12,25,06,10,0.00
2006,12,25,06,11,0.00
2006,12,25,06,12,0.00
2006,12,25,06,13,0.00
2006,12,25,06,14,1.40
2006,12,25,06,15,0.70
2006,12,25,06,16,0.00
2006,12,25,06,17,0.00
2006,12,25,06,18,1.10
2006,12,25,06,19,2.70
2006,12,25,06,20,3.10
2006,12,25,06,21,0.30
2006,12,25,06,22,0.00
2006,12,25,06,23,0.20
2006,12,25,06,24,0.90
2006,12,25,06,25,0.10
2006,12,25,06,26,0.00
2006,12,25,06,27,0.00
2006,12,25,06,28,0.00
2006,12,25,06,29,0.00
2006,12,25,06,30,0.00
2006,12,25,06,31,0.00
2006,12,25,06,32,0.00
2006,12,25,06,33,0.00
2006,12,25,06,34,0.40
2006,12,25,06,35,0.80
2006,12,25,06,36,2.20
2006,12,25,06,37,4.50
2006,12,25,06,38,5.50
2006,12,25,06,39,4.20
2006,12,25,06,40,1.40
2006,12,25,06,41,1.10
2006,12,25,06,42,2.40
2006,12,25,06,43,1.80
2006,12,25,06,44,2.70
2006,12,25,06,45,1.00
2006,12,25,06,46,0.10
2006,12,25,06,47,0.20
2006,12,25,06,48,0.30
2006,12,25,06,49,2.80
2006,12,25,06,50,4.40
2006,12,25,06,51,4.00
2006,12,25,06,52,1.50
2006,12,25,06,53,0.20
2006,12,25,06,54,1.00
2006,12,25,06,55,2.40
2006,12,25,06,56,1.60
2006,12,25,06,57,1.10
2006,12,25,06,58,0.40
2006,12,25,06,59,1.30
2006,12,25,07,00,0.60
2006,12,25,07,01,0.00
2006,12,25,07,02,0.50
2006,12,25,07,03,0.20
2006,12,25,07,04,0.00
2006,12,25,07,05,0.10
2006,12,25,07,06,1.40
2006,12,25,07,07,0.40
2006,12,25,07,08,0.10
2006,12,25,07,09,0.30
2006,12,25,07,10,0.00
2006,12,25,07,11,4.40
2006,12,25,07,12,9.50
2006,12,25,07,13,10.50
2006,12,25,07,14,10.10
2006,12,25,07,15,9.70
2006,12,25,07,16,9.00
2006,12,25,07,17,9.90
2006,12,25,07,18,9.40
2006,12,25,07,19,8.50
2006,12,25,07,20,7.10
2006,12,25,07,21,5.80
2006,12,25,07,22,5.30
2006,12,25,07,23,3.40
2006,12,25,07,24,2.30
2006,12,25,07,25,2.50
2006,12,25,07,26,1.80
2006,12,25,07,27,1.40
2006,12,25,07,28,0.10
2006,12,25,07,29,0.00
2006,12,25,07,30,0.00
2006,12,25,07,31,0.00
2006,12,25,07,32,0.00
2006,12,25,07,33,0.00
2006,12,25,07,34,0.00
2006,12,25,07,35,0.00
2006,12,25,07,36,0.10
2006,12,25,07,37,0.80
2006,12,25,07,38,0.70
2006,12,25,07,39,1.90
2006,12,25,07,40,1.80
2006,12,25,07,41,1.30
2006,12,25,07,42,1.40
2006,12,25,07,43,1.30
2006,12,25,07,44,0.30
2006,12,25,07,45,0.10
2006,12,25,07,46,0.20
2006,12,25,07,47,0.00
2006,12,25,07,48,0.00
2006,12,25,07,49,0.10
2006,12,25,07,50,0.10
2006,12,25,07,51,0.00
2006,12,25,07,52,0.00
2006,12,25,07,53,0.00
2006,12,25,07,54,0.00
2006,12,25,07,55,0.00
2006,12,25,07,56,0.00
2006,12,25,07,57,0.00
2006,12,25,07,58,0.00
2006,12,25,07,59,0.00
2006,12,25,08,00,0.00
2006,12,25,08,01,0.00
2006,12,25,08,02,0.00
2006,12,25,08,03,0.00
2006,12,25,08,04,0.00
2006,12,25,08,05,0.00
2006,12,25,08,06,0.00
2006,12,25,08,07,0.00
2006,12,25,08,08,0.50
2006,12,25,08,09,2.20
2006,12,25,08,10,4.70
2006,12,25,08,11,4.60
2006,12,25,08,12,4.10
2006,12,25,08,13,2.20
2006,12,25,08,14,1.80
2006,12,25,08,15,1.50
2006,12,25,08,16,0.10
2006,12,25,08,17,0.10
2006,12,25,08,18,0.00
2006,12,25,08,19,0.00
2006,12,25,08,20,0.20
2006,12,25,08,21,0.40
2006,12,25,08,22,2.10
2006,12,25,08,23,2.30
2006,12,25,08,24,2.30
2006,12,25,08,25,0.90
2006,12,25,08,26,0.00
2006,12,25,08,27,0.10
2006,12,25,08,28,0.50
2006,12,25,08,29,1.70
2006,12,25,08,30,1.20
2006,12,25,08,31,0.90
2006,12,25,08,32,1.90
2006,12,25,08,33,3.10
2006,12,25,08,34,2.40
2006,12,25,08,35,0.30
2006,12,25,08,36,0.00
2006,12,25,08,37,0.70
2006,12,25,08,38,0.80
2006,12,25,08,39,4.20
2006,12,25,08,40,7.30
2006,12,25,08,41,8.30
2006,12,25,08,42,4.60
2006,12,25,08,43,4.60
2006,12,25,08,44,5.80
2006,12,25,08,45,5.10
2006,12,25,08,46,4.70
2006,12,25,08,47,4.90
2006,12,25,08,48,4.20
2006,12,25,08,49,2.60
2006,12,25,08,50,0.00
2006,12,25,08,51,0.00
2006,12,25,08,52,1.80
2006,12,25,08,53,4.10
2006,12,25,08,54,4.20
2006,12,25,08,55,3.30
2006,12,25,08,56,1.60
2006,12,25,08,57,0.20
2006,12,25,08,58,0.60
2006,12,25,08,59,0.80
2006,12,25,09,00,0.60
2006,12,25,09,01,0.60
2006,12,25,09,02,0.60
2006,12,25,09,03,0.30
2006,12,25,09,04,0.70
2006,12,25,09,05,1.30
2006,12,25,09,06,1.00
2006,12,25,09,07,1.70
2006,12,25,09,08,2.00
2006,12,25,09,09,2.00
2006,12,25,09,10,0.60
2006,12,25,09,11,1.10
2006,12,25,09,12,1.80
2006,12,25,09,13,1.10
2006,12,25,09,14,0.60
2006,12,25,09,15,1.50
2006,12,25,09,16,0.30
2006,12,25,09,17,0.00
2006,12,25,09,18,0.00
2006,12,25,09,19,0.00
2006,12,25,09,20,0.00
2006,12,25,09,21,0.00
2006,12,25,09,22,0.00
2006,12,25,09,23,0.00
2006,12,25,09,24,0.00
2006,12,25,09,25,0.00
2006,12,25,09,26,0.00
2006,12,25,09,27,0.00
2006,12,25,09,28,0.00
2006,12,25,09,29,0.00
2006,12,25,09,30,0.00
2006,12,25,09,31,0.00
2006,12,25,09,32,0.00
2006,12,25,09,33,0.20
2006,12,25,09,34,0.40
2006,12,25,09,35,1.30
2006,12,25,09,36,1.20
2006,12,25,09,37,0.10
2006,12,25,09,38,0.10
2006,12,25,09,39,2.30
2006,12,25,09,40,2.90
2006,12,25,09,41,3.20
2006,12,25,09,42,2.40
2006,12,25,09,43,0.80
2006,12,25,09,44,0.00
2006,12,25,09,45,0.00
2006,12,25,09,46,0.00
2006,12,25,09,47,0.00
2006,12,25,09,48,0.00
2006,12,25,09,49,0.00
2006,12,25,09,50,1.00
2006,12,25,09,51,2.00
2006,12,25,09,52,1.50
2006,12,25,09,53,0.20
2006,12,25,09,54,0.00
2006,12,25,09,55,0.00
2006,12,25,09,56,0.00
2006,12,25,09,57,0.10
2006,12,25,09,58,0.70
2006,12,25,09,59,0.70
2006,12,25,10,00,3.10
2006,12,25,10,01,2.20
2006,12,25,10,02,1.90
2006,12,25,10,03,1.40
2006,12,25,10,04,0.80
2006,12,25,10,05,2.60
2006,12,25,10,06,1.50
2006,12,25,10,07,0.70
2006,12,25,10,08,1.30
2006,12,25,10,09,0.60
2006,12,25,10,10,0.60
2006,12,25,10,11,0.40
2006,12,25,10,12,0.70
2006,12,25,10,13,0.00
2006,12,25,10,14,0.00
2006,12,25,10,15,0.00
2006,12,25,10,16,0.00
2006,12,25,10,17,0.20
2006,12,25,10,18,0.10
2006,12,25,10,19,0.20
2006,12,25,10,20,0.00
2006,12,25,10,21,0.00
2006,12,25,10,22,0.00
2006,12,25,10,23,0.00
2006,12,25,10,24,0.00
2006,12,25,10,25,0.70
2006,12,25,10,26,0.10
2006,12,25,10,27,0.10
2006,12,25,10,28,0.00
2006,12,25,10,29,0.00
2006,12,25,10,30,0.20
2006,12,25,10,31,0.00
2006,12,25,10,32,0.30
2006,12,25,10,33,0.30
2006,12,25,10,34,0.00
2006,12,25,10,35,0.20
2006,12,25,10,36,0.20
2006,12,25,10,37,0.00
2006,12,25,10,38,0.10
2006,12,25,10,39,0.30
2006,12,25,10,40,0.30
2006,12,25,10,41,0.30
2006,12,25,10,42,0.00
2006,12,25,10,43,0.00
2006,12,25,10,44,0.00
2006,12,25,10,45,0.00
2006,12,25,10,46,0.50
2006,12,25,10,47,2.50
2006,12,25,10,48,4.40
2006,12,25,10,49,4.00
2006,12,25,10,50,3.10
2006,12,25,10,51,2.40
2006,12,25,10,52,2.60
2006,12,25,10,53,3.10
2006,12,25,10,54,3.30
2006,12,25,10,55,3.00
2006,12,25,10,56,3.50
2006,12,25,10,57,4.60
2006,12,25,10,58,4.80
2006,12,25,10,59,2.50
2006,12,25,11,00,3.10
2006,12,25,11,01,3.50
2006,12,25,11,02,4.00
2006,12,25,11,03,2.10
2006,12,25,11,04,3.00
2006,12,25,11,05,3.40
2006,12,25,11,06,2.80
2006,12,25,11,07,2.00
2006,12,25,11,08,5.50
2006,12,25,11,09,4.80
2006,12,25,11,10,4.00
2006,12,25,11,11,4.70
2006,12,25,11,12,6.50
2006,12,25,11,13,10.60
2006,12,25,11,14,8.00
2006,12,25,11,15,10.50
2006,12,25,11,16,9.40
2006,12,25,11,17,11.90
2006,12,25,11,18,9.10
2006,12,25,11,19,9.30
2006,12,25,11,20,7.60
2006,12,25,11,21,8.20
2006,12,25,11,22,9.80
2006,12,25,11,23,7.90
2006,12,25,11,24,7.00
2006,12,25,11,25,4.80
2006,12,25,11,26,3.50
2006,12,25,11,27,4.60
2006,12,25,11,28,4.70
2006,12,25,11,29,4.40
2006,12,25,11,30,8.50
2006,12,25,11,31,8.80
2006,12,25,11,32,8.40
2006,12,25,11,33,11.00
2006,12,25,11,34,9.10
2006,12,25,11,35,8.00
2006,12,25,11,36,10.30
2006,12,25,11,37,10.80
2006,12,25,11,38,5.80
2006,12,25,11,39,6.90
2006,12,25,11,40,10.00
2006,12,25,11,41,13.60
2006,12,25,11,42,15.00
2006,12,25,11,43,9.90
2006,12,25,11,44,8.40
2006,12,25,11,45,7.60
2006,12,25,11,46,7.30
2006,12,25,11,47,6.80
2006,12,25,11,48,11.40
2006,12,25,11,49,6.80
2006,12,25,11,50,7.80
2006,12,25,11,51,7.50
2006,12,25,11,52,9.80
2006,12,25,11,53,7.30
2006,12,25,11,54,7.20
2006,12,25,11,55,8.90
2006,12,25,11,56,8.60
2006,12,25,11,57,6.90
2006,12,25,11,58,8.30
2006,12,25,11,59,8.30
2006,12,25,12,00,8.70
2006,12,25,12,01,9.60
2006,12,25,12,02,6.70
2006,12,25,12,03,7.40
2006,12,25,12,04,13.70
2006,12,25,12,05,14.20
2006,12,25,12,06,9.00
2006,12,25,12,07,11.20
2006,12,25,12,08,10.00
2006,12,25,12,09,9.80
2006,12,25,12,10,7.00
2006,12,25,12,11,8.80
2006,12,25,12,12,8.10
2006,12,25,12,13,6.80
2006,12,25,12,14,5.10
2006,12,25,12,15,7.60
2006,12,25,12,16,6.80
2006,12,25,12,17,4.00
2006,12,25,12,18,6.60
2006,12,25,12,19,4.00
2006,12,25,12,20,6.30
2006,12,25,12,21,3.90
2006,12,25,12,22,7.60
2006,12,25,12,23,8.70
2006,12,25,12,24,4.50
2006,12,25,12,25,7.00
2006,12,25,12,26,4.30
2006,12,25,12,27,8.70
2006,12,25,12,28,7.70
2006,12,25,12,29,6.00
2006,12,25,12,30,5.20
2006,12,25,12,31,5.70
2006,12,25,12,32,4.30
2006,12,25,12,33,2.80
2006,12,25,12,34,5.70
2006,12,25,12,35,4.20
2006,12,25,12,36,3.60
2006,12,25,12,37,5.40
2006,12,25,12,38,5.30
2006,12,25,12,39,3.40
2006,12,25,12,40,4.70
2006,12,25,12,41,4.10
2006,12,25,12,42,4.60
2006,12,25,12,43,3.80
2006,12,25,12,44,4.10
2006,12,25,12,45,3.80
2006,12,25,12,46,5.00
2006,12,25,12,47,7.10
2006,12,25,12,48,6.00
2006,12,25,12,49,3.20
2006,12,25,12,50,3.30
2006,12,25,12,51,5.20
2006,12,25,12,52,6.00
2006,12,25,12,53,3.50
2006,12,25,12,54,3.90
2006,12,25,12,55,6.10
2006,12,25,12,56,4.80
2006,12,25,12,57,6.30
2006,12,25,12,58,6.70
2006,12,25,12,59,2.20
2006,12,25,13,00,1.70
2006,12,25,13,01,1.30
2006,12,25,13,02,3.10
2006,12,25,13,03,2.70
2006,12,25,13,04,5.20
2006,12,25,13,05,5.30
2006,12,25,13,06,5.00
2006,12,25,13,07,3.20
2006,12,25,13,08,2.50
2006,12,25,13,09,1.00
2006,12,25,13,10,2.50
2006,12,25,13,11,3.80
2006,12,25,13,12,5.10
2006,12,25,13,13,6.20
2006,12,25,13,14,5.10
2006,12,25,13,15,8.00
2006,12,25,13,16,7.10
2006,12,25,13,17,8.00
2006,12,25,13,18,7.00
2006,12,25,13,19,6.80
2006,12,25,13,20,4.30
2006,12,25,13,21,5.10
2006,12,25,13,22,3.60
2006,12,25,13,23,5.30
2006,12,25,13,24,6.80
2006,12,25,13,25,6.20
2006,12,25,13,26,5.80
2006,12,25,13,27,4.50
2006,12,25,13,28,5.30
2006,12,25,13,29,4.70
2006,12,25,13,30,6.60
2006,12,25,13,31,5.20
2006,12,25,13,32,5.60
2006,12,25,13,33,4.50
2006,12,25,13,34,3.70
2006,12,25,13,35,3.50
2006,12,25,13,36,2.80
2006,12,25,13,37,2.20
2006,12,25,13,38,3.20
2006,12,25,13,39,5.20
2006,12,25,13,40,3.70
2006,12,25,13,41,2.50
2006,12,25,13,42,5.50
2006,12,25,13,43,2.70
2006,12,25,13,44,4.70
2006,12,25,13,45,6.20
2006,12,25,13,46,5.60
2006,12,25,13,47,4.70
2006,12,25,13,48,6.00
2006,12,25,13,49,6.10
2006,12,25,13,50,6.50
2006,12,25,13,51,7.00
2006,12,25,13,52,3.70
2006,12,25,13,53,5.80
2006,12,25,13,54,4.70
2006,12,25,13,55,3.80
2006,12,25,13,56,6.80
2006,12,25,13,57,6.80
2006,12,25,13,58,3.90
2006,12,25,13,59,3.90
2006,12,25,14,00,3.90
2006,12,25,14,01,1.30
2006,12,25,14,02,5.00
2006,12,25,14,03,2.90
2006,12,25,14,04,4.10
2006,12,25,14,05,3.60
2006,12,25,14,06,5.10
2006,12,25,14,07,3.80
2006,12,25,14,08,4.80
2006,12,25,14,09,1.90
2006,12,25,14,10,5.00
2006,12,25,14,11,5.20
2006,12,25,14,12,4.70
2006,12,25,14,13,4.50
2006,12,25,14,14,2.80
2006,12,25,14,15,3.80
2006,12,25,14,16,2.50
2006,12,25,14,17,1.00
2006,12,25,14,18,4.80
2006,12,25,14,19,7.20
2006,12,25,14,20,6.40
2006,12,25,14,21,5.70
2006,12,25,14,22,5.70
2006,12,25,14,23,3.90
2006,12,25,14,24,2.30
2006,12,25,14,25,0.70
2006,12,25,14,26,1.20
2006,12,25,14,27,0.10
2006,12,25,14,28,2.30
2006,12,25,14,29,0.90
2006,12,25,14,30,3.60
2006,12,25,14,31,5.70
2006,12,25,14,32,5.10
2006,12,25,14,33,4.70
2006,12,25,14,34,5.10
2006,12,25,14,35,5.10
2006,12,25,14,36,6.50
2006,12,25,14,37,6.20
2006,12,25,14,38,4.70
2006,12,25,14,39,2.90
2006,12,25,14,40,2.00
2006,12,25,14,41,3.20
2006,12,25,14,42,2.40
2006,12,25,14,43,3.30
2006,12,25,14,44,5.40
2006,12,25,14,45,6.10
2006,12,25,14,46,2.20
2006,12,25,14,47,3.80
2006,12,25,14,48,3.70
2006,12,25,14,49,2.00
2006,12,25,14,50,3.50
2006,12,25,14,51,6.90
2006,12,25,14,52,3.10
2006,12,25,14,53,3.40
2006,12,25,14,54,2.20
2006,12,25,14,55,2.10
2006,12,25,14,56,5.70
2006,12,25,14,57,3.00
2006,12,25,14,58,4.30
2006,12,25,14,59,2.40
2006,12,25,15,00,4.10
2006,12,25,15,01,2.00
2006,12,25,15,02,2.60
2006,12,25,15,03,0.90
2006,12,25,15,04,0.90
2006,12,25,15,05,1.20
2006,12,25,15,06,2.20
2006,12,25,15,07,2.90
2006,12,25,15,08,1.00
2006,12,25,15,09,0.00
2006,12,25,15,10,0.60
2006,12,25,15,11,4.20
2006,12,25,15,12,3.00
2006,12,25,15,13,1.50
2006,12,25,15,14,2.30
2006,12,25,15,15,2.50
2006,12,25,15,16,1.70
2006,12,25,15,17,1.50
2006,12,25,15,18,1.40
2006,12,25,15,19,2.00
2006,12,25,15,20,2.10
2006,12,25,15,21,2.30
2006,12,25,15,22,1.10
2006,12,25,15,23,0.30
2006,12,25,15,24,1.30
2006,12,25,15,25,1.80
2006,12,25,15,26,2.00
2006,12,25,15,27,1.40
2006,12,25,15,28,0.80
2006,12,25,15,29,1.20
2006,12,25,15,30,1.10
2006,12,25,15,31,0.60
2006,12,25,15,32,0.50
2006,12,25,15,33,0.10
2006,12,25,15,34,0.10
2006,12,25,15,35,0.00
2006,12,25,15,36,0.40
2006,12,25,15,37,0.00
2006,12,25,15,38,0.90
2006,12,25,15,39,0.00
2006,12,25,15,40,0.00
2006,12,25,15,41,0.00
2006,12,25,15,42,0.00
2006,12,25,15,43,0.10
2006,12,25,15,44,2.00
2006,12,25,15,45,1.30
2006,12,25,15,46,0.00
2006,12,25,15,47,0.00
2006,12,25,15,48,0.00
2006,12,25,15,49,0.00
2006,12,25,15,50,0.00
2006,12,25,15,51,0.00
2006,12,25,15,52,0.00
2006,12,25,15,53,0.00
2006,12,25,15,54,0.60
2006,12,25,15,55,0.50
2006,12,25,15,56,0.00
2006,12,25,15,57,0.00
2006,12,25,15,58,0.00
2006,12,25,15,59,0.00
2006,12,25,16,00,0.00
2006,12,25,16,01,0.00
2006,12,25,16,02,0.00
2006,12,25,16,03,0.00
2006,12,25,16,04,0.00
2006,12,25,16,05,0.00
2006,12,25,16,06,0.00
2006,12,25,16,07,0.00
2006,12,25,16,08,0.00
2006,12,25,16,09,0.00
2006,12,25,16,10,0.00
2006,12,25,16,11,0.00
2006,12,25,16,12,0.00
2006,12,25,16,13,0.00
2006,12,25,16,14,0.00
2006,12,25,16,15,0.20
2006,12,25,16,16,0.30
2006,12,25,16,17,0.00
2006,12,25,16,18,0.20
2006,12,25,16,19,1.80
2006,12,25,16,20,1.80
2006,12,25,16,21,0.60
2006,12,25,16,22,0.00
2006,12,25,16,23,0.00
2006,12,25,16,24,0.90
2006,12,25,16,25,1.00
2006,12,25,16,26,1.50
2006,12,25,16,27,2.30
2006,12,25,16,28,1.30
2006,12,25,16,29,0.00
2006,12,25,16,30,0.00
2006,12,25,16,31,0.00
2006,12,25,16,32,0.00
2006,12,25,16,33,0.00
2006,12,25,16,34,0.00
2006,12,25,16,35,0.00
2006,12,25,16,36,0.00
2006,12,25,16,37,0.30
2006,12,25,16,38,0.00
2006,12,25,16,39,0.10
2006,12,25,16,40,0.00
2006,12,25,16,41,0.00
2006,12,25,16,42,0.00
2006,12,25,16,43,0.00
2006,12,25,16,44,0.00
2006,12,25,16,45,0.20
2006,12,25,16,46,0.00
2006,12,25,16,47,0.30
2006,12,25,16,48,0.00
2006,12,25,16,49,0.00
2006,12,25,16,50,0.00
2006,12,25,16,51,0.00
2006,12,25,16,52,0.30
2006,12,25,16,53,1.10
2006,12,25,16,54,2.10
2006,12,25,16,55,1.30
2006,12,25,16,56,0.10
2006,12,25,16,57,0.00
2006,12,25,16,58,0.00
2006,12,25,16,59,0.00
2006,12,25,17,00,0.00
2006,12,25,17,01,0.00
2006,12,25,17,02,0.00
2006,12,25,17,03,0.10
2006,12,25,17,04,0.60
2006,12,25,17,05,1.90
2006,12,25,17,06,3.10
2006,12,25,17,07,2.10
2006,12,25,17,08,1.20
2006,12,25,17,09,0.20
2006,12,25,17,10,0.00
2006,12,25,17,11,0.00
2006,12,25,17,12,0.60
2006,12,25,17,13,0.50
2006,12,25,17,14,0.00
2006,12,25,17,15,0.00
2006,12,25,17,16,0.00
2006,12,25,17,17,0.20
2006,12,25,17,18,0.00
2006,12,25,17,19,0.00
2006,12,25,17,20,0.00
2006,12,25,17,21,0.30
2006,12,25,17,22,0.20
2006,12,25,17,23,0.00
2006,12,25,17,24,0.00
2006,12,25,17,25,0.00
2006,12,25,17,26,0.00
2006,12,25,17,27,0.50
2006,12,25,17,28,0.30
2006,12,25,17,29,0.60
2006,12,25,17,30,0.10
2006,12,25,17,31,0.00
2006,12,25,17,32,0.00
2006,12,25,17,33,0.00
2006,12,25,17,34,0.00
2006,12,25,17,35,0.00
2006,12,25,17,36,0.00
2006,12,25,17,37,0.00
2006,12,25,17,38,0.00
2006,12,25,17,39,0.20
2006,12,25,17,40,0.50
2006,12,25,17,41,1.30
2006,12,25,17,42,0.60
2006,12,25,17,43,0.00
2006,12,25,17,44,0.00
2006,12,25,17,45,0.00
2006,12,25,17,46,0.30
2006,12,25,17,47,0.20
2006,12,25,17,48,0.00
2006,12,25,17,49,0.00
2006,12,25,17,50,0.10
2006,12,25,17,51,2.00
2006,12,25,17,52,2.80
2006,12,25,17,53,1.40
2006,12,25,17,54,0.10
2006,12,25,17,55,0.00
2006,12,25,17,56,0.10
2006,12,25,17,57,0.10
2006,12,25,17,58,0.10
2006,12,25,17,59,0.00
2006,12,25,18,00,0.00
2006,12,25,18,01,0.20
2006,12,25,18,02,1.30
2006,12,25,18,03,2.40
2006,12,25,18,04,2.60
2006,12,25,18,05,3.80